sat.trackr.live / text

‹ back to catalog

ONEWEB-0059

NORAD 45162 · 2020-008AH

PAYLOAD ACTIVE UNKNOWN

§ Identity

Operator
Country
UK
Launch date
2020-02-06
Launch site
TYMSC
Launch vehicle
Mass (kg)
RCS (m²)

Purposes: comms

External: N2YO · Heavens-Above · Gunter

§ Orbital elements

Epoch: 2026-09-13T02:15:56.066688Z

Period
109.89 min
Inclination
87.8901°
Eccentricity
0.0002054
Mean motion
13.10376092 rev/d
Perigee alt
1,220.1 km
Apogee alt
1,223.3 km
Semi-major
7,599.8 km
B*
1.4124e-3
RAAN
18.7723°
Arg perigee
107.2121°
Mean anomaly
252.9231°
Rev number
31,983

§ Raw data

ONEWEB-00591 45162U 20008AH  26256.09439892  .00000506  00000+0  14124-2 0  99972 45162  87.8901  18.7723 0002054 107.2121 252.9231 13.10376092319836

JSON: /api/v1/satellites/45162 · /tle

For live sub-satellite position, see the globe view (requires WebGL).

§ Visibility from observer

Set your observer location to see the next 7 days of passes ≥ 10°. The values pass through the URL so the page stays shareable.

No JS? Fill the form by hand. The geolocation button needs JavaScript.